Погода в Любашевке

Погода в Любашевке : погода сейчас, прогноз погоды и архив. Всё, что Вы хотите узнать о погоде в Любашевке!

Хотите узнать прогноз погоды в Любашевке? Тогда Вам сюда: Погода в Любашевке

Поиск расширенной информации на нашем сайте:

Другие новости

Новости СМИ2

Главная страница сайта

Новости сайта

03.07.2017

Напоминаем, что на нашем специализированном сайте Метеоцентр.Азия вы можете получить высокодетализированные автоматические прогнозы погоды по пунктам России, СНГ и мира в авиационном формате (включающие направление и скорость ветра, видимость, явления погоды, количество и форму облачности, нижнюю и верхнюю границу облачности).


Погода в Любашевке - сегодня

Время (UTC), дата Ветер
(°,м/с) 
Видим.   Явления Облачность Т
(°С)
Тd
(°С)
f(%) Тe
(°С)
Pmin
(гПа)
dP
(гПа)
Po
(мм)
O2
(г/м3)
Тmin Tmax R s Состояние
почвы
12 08.12.17 200 (Ю) 20000 м    ясно 
+6.3 +2.4 76 +5  1014.9  -1.9  744  293           
15 08.12.17 170 (Ю) 10 км    ясно 
+3.4 +1.6 88 +2  1014.3  -0.8  744  296           
18 08.12.17 190 (Ю) 4000 м  дымка  ясно 
+1.8 +0.3 90 +1  1014.2  -0.2  744  298    +6.7       
21 08.12.17 190 (Ю) 4000 м  дымка  ясно 
+0.1 -0.4 96 -1  1013.8  -0.6  743  299           
00 09.12.17 тихо ()   2000 м  дымка  ясно 
-1.5 -1.8 98 -2  1013.4  -0.5  743  301           
03 09.12.17 160 (Ю) 0500 м  переохл. туман  ясно 
-3.8 -3.8 100 -5  1012.5  -1.1  742  304           
06 09.12.17 160 (Ю) 0100 м  переохл. туман  ясно 
-3.7 -3.7 100 -6  1011.8  -0.6  742  303  -4         
09 09.12.17 170 (Ю) 0500 м  туман  ясно 
-0.8 -0.8 100 -2  1011.1  -0.5  741  300           
12 09.12.17 160 (Ю) 20000 м  {туман}  8/0 верхняя 
[Ci fib]
+5.7 +2.6 80 +4  1008.6  -1.9             
15 09.12.17 150 (ЮВ) 10 км    9/9 600 м 
[Sc]
+4.8 +2.6 86 +3  1007.4  -1.2  739  292           
18 09.12.17 160 (Ю) 4000 м  дымка  4/4 600 м 
[Sc]
+4 +3.7 98 +2  1006.8  -0.7  738  293    +6.8       
21 09.12.17 150 (ЮВ) 0500 м  туман  ?/?  
+4.4 +4.4 100 +3  1005.4  -1.3  737  292           
00 10.12.17 170 (Ю) 4000 м  в посл. час туман  10/10 300 м 
[St]
+5.8 +5.5 98 +4  1004.2  -1.1  737  290           
03 10.12.17 190 (Ю) 4000 м  дымка  10/10 300 м 
[St]
+6.3 +5.6 95 +5  1002.8  -1.3  736  289           
06 10.12.17 180 (Ю) 5000 м  дымка  10/10 300 м 
[St]
+5.6 +5.3 98 +5  1001.8  -1  735  289  +3.7         
09 10.12.17 340 (С) 3500 м  слаб. дождь{туман}  10/10 300 м 
[Frnb|Ns]
+4 +3.7 98 +3  1000.5  -1.4  734  291           
12 10.12.17 320 (СЗ) 2200 м  снег{дождь}  10/10 300 м 
[Frnb|Ns]
-0 -0.2 99 -2  998.9  -1.9  732  295         
15 10.12.17 300 (СЗ) 0500 м  сильн. снег  ?/?  
-1.4 -1.9 96 -6  1002.4  3.3  735  298           
18 10.12.17 300 (СЗ) 4000 м  слаб. снег  10/10 300 м 
[Frnb|Ns]
-1 -1.5 96 -5  1007.1  4.6  738  299    +5.6     
21 10.12.17 250 (З) 4000 м  дымка{снег}  ясно 
-1.7 -2.3 96 -4  1010.8  3.6  741  301           
00 11.12.17 220 (ЮЗ) 4000 м  дымка{снег}  ясно 
-3.8 -4.4 96 -6  1012.7  1.6  742  304         
03 11.12.17 190 (Ю) 10 км    10/0 средняя 
[Ac und]
-3 -4.5 89 -6  1012  -0.6  742  303           
06 11.12.17 180 (Ю) 10 км    10/0 средняя, верхняя 
[Ac trans|Ci]
-2.3 -3.5 91 -5  1012  0.1  742  302  -3.8    равномерный
сухой снег
100% 
09 11.12.17 190 (Ю) 12000 м    9/0 средняя, верхняя 
[Ac trans|Ci fib]
-0.7 -2.9 85 -4  1012.7  0.8  742  300           
12 11.12.17 180 (Ю) 12000 м    10/0 средняя 
[Ac As]
+0.1 -2.2 84 -3  1012.5  -0.1  742  299           
Время (UTC), дата Ветер
(°,м/с) 
Видим.   Явления Облачность Т
(°С)
Тd
(°С)
f(%) Тe
(°С)
Pmin
(гПа)
dP
(гПа)
Po
(мм)
O2
(г/м3)
Тmin Tmax R s Состояние
почвы

Для получения пояснительной информации подведите курсор к названию столбца.

ПОГОДА в Любашевке - архив

Всё, что Вы хотите узнать о погоде в Любашевке - удобно и подробно!

Выберите нужную дату (начиная с 1 января 2015* года) и нажмите кнопку "Найти".
Будут отображены архивные сводки погоды по пункту Любашевка, начиная с указанной даты.


Отображать данные в формате CSV (для использования в таблицах Excel)


Внимание! Наш архив погоды предназначен исключительно для личного некоммерческого использования в познавательных целях. Если Вам необходимы официальные справки о состоянии погоды (для производственных, юридических, коммерческих и т.п. целей), обращайтесь в органы Росгидромета.

*Примечание: данная дата относится к архиву по метеостанциям СССР (Россия, СНГ, Балтия).
Архив по метеостанциям Зарубежной Европы и Азии (кроме Китая) хранится 10 дней, по другим регионам земного шара (Китай, Африка, Америка, Австралия, Океания) - 1 день.

Любашевка - район местоположения метеостанции


Название, широта, долгота, высота метеостанции:
Любашевка 47.9°ш. 30.3°д. 183 м над ур. моря [Украина]

Дополнительная информация

В oтличие oт бoльшинства пoгoдных сайтoв мы публикуем пoдрoбную метеoинфoрмацию в детальнoм прoфессиoнальнoм фoрмате.

Характеристики температуры и влажнoсти вoздуха измеряются на высoте 2 м в тени вдали oт зданий и деревьев.
Скoрoсть ветра измеряется на высoте 10 м (на урoвне рoста челoвека скoрoсть ветра ниже в 1.5-2 раза). Если метеoстанция нахoдится в гoрoде или в лесу, тo скoрoсть ветра занижена на 2-4 м/с пo сравнению с oткрытым местoм. Скoрoсть ветра над акватoриями крупных рек и oзёр, а также на вершинах хoлмoв на 2-5 м/с выше, чем в oбычных услoвиях.
Атмoсфернoе давление в разных тoчках местнoсти мoжет значительнo oтличаться oт давления на метеoстанции, в зависимoсти oт услoвий рельефа (при пoдъёме на 10 м давление пoнижается примернo на 1 мм рт.ст.).